カタログに戻る

COSMOS 449

運用中軍事LEO
NORAD 5552·PAYLOAD·🇷🇺 Russia

打ち上げ Oct 13, 1971 から Plesetsk Cosmodrome

Loading…

次のパス (今後24時間)

TLE

最新Source: Space-Track

元期: Sep 14, 2026, 09:11 UTC

1 05552U 71086F   26257.38277807 -.00000027  00000-0 -87232-4 0  9990
2 05552  74.0268  58.6750 0037457 206.3059 162.4946 12.38734786483532

AllMySatでCOSMOS 449をリアルタイム追跡

Download on the App Store